Simultaneous Nadir Overpasses (SNOs) Predictions

Prediction of SNOs between METOP-C and LANDSAT-8 Satellite Orbit:

Table of predicted SNOs for the next 14.0 days since TLE Epoch: 5/31/2025
Index Date (METOP-C) Time (METOP-C) Lat,Lon (METOP-C) SZA (METOP-C ) Date (LANDSAT-8) Time (LANDSAT-8) Lat,Lon (LANDSAT-8) SZA (LANDSAT-8 ) Distance(km) Time Diff (sec)
1 05/31/2025 14:49:11 -81.09, 177.12 118.74 05/31/2025 14:49:42 -81.09, 176.97 118.75 2.82 31
2 05/31/2025 15:39:50 81.12, -14.75 61.37 05/31/2025 15:39:07 81.12, -14.91 61.32 2.88 43
3 06/03/2025 10:23:34 -81.11,-116.14 119.07 06/03/2025 10:23:56 -81.10,-116.30 119.08 2.69 22
4 06/03/2025 11:14:13 81.13, 51.97 61.04 06/03/2025 11:13:21 81.13, 51.79 60.99 2.99 52
5 06/06/2025 05:57:59 -81.09, -50.21 119.45 06/06/2025 05:58:11 -81.09, -50.07 119.43 2.44 12
6 06/06/2025 06:48:38 81.12, 117.87 60.65 06/06/2025 06:47:36 81.12, 117.99 60.63 2.09 62
7 06/09/2025 01:32:20 -81.11, 16.78 119.65 06/09/2025 01:32:23 -81.11, 16.73 119.65 0.83 3
8 06/09/2025 02:23:00 81.12,-175.54 60.40 06/09/2025 02:21:49 81.12,-175.59 60.36 1.22 71
9 06/11/2025 20:16:05 81.08, -85.03 60.03 06/11/2025 20:17:11 81.08, -84.98 60.06 0.83 66



Historial Predications of SNOs between METOP-C and LANDSAT-8
